QAK617 MMAA-MMMX

Flight info

Callsign QAK617
Flight time 0h 33m
Altitude 36000
Route ALNUS1B ALNUS UT117 ESPOS ESPOS3A
Aircraft C750/M-SBDE3FGHRWXY/S

Departure

Time 2026-05-05 05:32
Airport General Juan N. Álvarez International Airport (MMAA)

Arrival

Time 2026-05-05 06:06
Airport Mexico City Benito Juárez International Airport (MMMX)
Time Latitude Longitude Altitude Speed Heading
2026-05-05 05:12 16.76101 -99.75020 26 ft 0 kts 247°
2026-05-05 05:20 16.76080 -99.75035 18 ft 7 kts 180°
2026-05-05 05:20 16.76048 -99.75064 17 ft 7 kts 265°
2026-05-05 05:20 16.76026 -99.75090 17 ft 4 kts 222°
2026-05-05 05:21 16.76020 -99.75138 17 ft 8 kts 261°
2026-05-05 05:21 16.75990 -99.75175 17 ft 6 kts 194°
2026-05-05 05:21 16.75971 -99.75170 17 ft 0 kts 158°
2026-05-05 05:28 16.75922 -99.75149 17 ft 15 kts 158°
2026-05-05 05:28 16.75821 -99.75082 18 ft 17 kts 112°
2026-05-05 05:29 16.75781 -99.74971 18 ft 17 kts 109°
2026-05-05 05:29 16.75747 -99.74857 17 ft 16 kts 108°
2026-05-05 05:29 16.75711 -99.74745 18 ft 16 kts 107°
2026-05-05 05:29 16.75676 -99.74637 17 ft 16 kts 110°
2026-05-05 05:30 16.75643 -99.74530 18 ft 15 kts 107°
2026-05-05 05:30 16.75610 -99.74426 19 ft 15 kts 107°
2026-05-05 05:30 16.75579 -99.74325 18 ft 15 kts 108°
2026-05-05 05:30 16.75538 -99.74294 18 ft 5 kts 199°
2026-05-05 05:31 16.75506 -99.74304 18 ft 5 kts 197°
2026-05-05 05:31 16.75473 -99.74315 18 ft 5 kts 198°
2026-05-05 05:31 16.75426 -99.74332 17 ft 10 kts 199°
2026-05-05 05:31 16.75387 -99.74351 17 ft 7 kts 297°
2026-05-05 05:32 16.75487 -99.74664 19 ft 107 kts 288°
2026-05-05 05:32 16.75786 -99.75609 402 ft 145 kts 287°
2026-05-05 05:32 16.76091 -99.76622 1230 ft 146 kts 287°
2026-05-05 05:32 16.76397 -99.77618 2130 ft 144 kts 287°
2026-05-05 05:33 16.76709 -99.78628 2900 ft 148 kts 287°
2026-05-05 05:33 16.77176 -99.79603 3631 ft 155 kts 307°
2026-05-05 05:33 16.78077 -99.80334 4175 ft 181 kts 332°
2026-05-05 05:33 16.79420 -99.80583 4573 ft 214 kts 359°
2026-05-05 05:34 16.80992 -99.80491 5184 ft 238 kts
2026-05-05 05:34 16.82724 -99.80400 5869 ft 260 kts
2026-05-05 05:34 16.84612 -99.80328 6509 ft 282 kts
2026-05-05 05:34 16.86593 -99.80251 7526 ft 285 kts
2026-05-05 05:35 16.88581 -99.80164 8744 ft 287 kts
2026-05-05 05:35 16.90590 -99.80078 9895 ft 291 kts
2026-05-05 05:35 16.92656 -99.79992 10620 ft 308 kts
2026-05-05 05:35 16.94891 -99.79897 10939 ft 335 kts
2026-05-05 05:36 16.97314 -99.79801 11194 ft 360 kts
2026-05-05 05:36 16.99829 -99.79701 12088 ft 361 kts
2026-05-05 05:36 17.02355 -99.79590 12962 ft 366 kts
2026-05-05 05:36 17.04916 -99.79477 13787 ft 370 kts
2026-05-05 05:37 17.07505 -99.79368 14538 ft 374 kts
2026-05-05 05:37 17.10127 -99.79260 15260 ft 379 kts
2026-05-05 05:37 17.12779 -99.79146 15990 ft 384 kts
2026-05-05 05:37 17.15461 -99.79020 16718 ft 389 kts
2026-05-05 05:38 17.18186 -99.78871 17470 ft 394 kts
2026-05-05 05:38 17.20933 -99.78754 18351 ft 397 kts
2026-05-05 05:38 17.23715 -99.78701 19039 ft 402 kts
2026-05-05 05:38 17.26530 -99.78597 19766 ft 407 kts
2026-05-05 05:39 17.29368 -99.78444 20517 ft 411 kts
2026-05-05 05:39 17.32245 -99.78309 21255 ft 416 kts
2026-05-05 05:39 17.35159 -99.78204 22011 ft 421 kts
2026-05-05 05:39 17.38103 -99.78091 22755 ft 427 kts
2026-05-05 05:40 17.41086 -99.77956 23502 ft 431 kts
2026-05-05 05:40 17.44104 -99.77821 24129 ft 436 kts
2026-05-05 05:40 17.47113 -99.77698 24762 ft 440 kts
2026-05-05 05:40 17.50185 -99.77573 25392 ft 444 kts
2026-05-05 05:41 17.53285 -99.77443 26011 ft 448 kts
2026-05-05 05:41 17.56420 -99.77304 26641 ft 452 kts
2026-05-05 05:41 17.59578 -99.77158 27268 ft 457 kts
2026-05-05 05:41 17.62769 -99.77003 27904 ft 461 kts
2026-05-05 05:42 17.65990 -99.76842 28534 ft 465 kts
2026-05-05 05:42 17.69236 -99.76673 29126 ft 470 kts
2026-05-05 05:42 17.72519 -99.76499 29725 ft 473 kts
2026-05-05 05:42 17.75833 -99.76564 30184 ft 480 kts 358°
2026-05-05 05:43 17.79168 -99.76894 30727 ft 482 kts 355°
2026-05-05 05:43 17.82513 -99.77237 31285 ft 483 kts 356°
2026-05-05 05:43 17.85856 -99.77394 32053 ft 479 kts 359°
2026-05-05 05:43 17.89179 -99.77498 32769 ft 477 kts 358°
2026-05-05 05:44 17.92482 -99.77711 33502 ft 475 kts 355°
2026-05-05 05:44 17.95772 -99.77977 34201 ft 473 kts 355°
2026-05-05 05:44 17.99054 -99.78180 34876 ft 471 kts 356°
2026-05-05 05:44 18.02314 -99.78338 35575 ft 468 kts 356°
2026-05-05 05:45 18.05570 -99.78526 35949 ft 473 kts 356°
2026-05-05 05:45 18.08908 -99.78754 35936 ft 487 kts 355°
2026-05-05 05:45 18.12335 -99.78977 35943 ft 500 kts 356°
2026-05-05 05:45 18.15842 -99.79177 35954 ft 510 kts 356°
2026-05-05 05:46 18.23032 -99.79611 35954 ft 524 kts 356°
2026-05-05 05:46 18.30372 -99.80066 35969 ft 532 kts 356°
2026-05-05 05:47 18.37783 -99.80513 35973 ft 534 kts 356°
2026-05-05 05:47 18.45201 -99.80973 35976 ft 534 kts 356°
2026-05-05 05:48 18.52619 -99.81423 35985 ft 533 kts 356°
2026-05-05 05:48 18.60027 -99.81695 35974 ft 533 kts
2026-05-05 05:49 18.63685 -99.81198 35979 ft 517 kts 11°
2026-05-05 05:49 18.67011 -99.80212 35902 ft 480 kts 19°
2026-05-05 05:49 18.69995 -99.78805 35328 ft 461 kts 28°
2026-05-05 05:49 18.72618 -99.76978 34757 ft 445 kts 38°
2026-05-05 05:50 18.74862 -99.74806 34110 ft 432 kts 46°
2026-05-05 05:50 18.76797 -99.72425 33281 ft 424 kts 52°
2026-05-05 05:50 18.78429 -99.69871 32476 ft 416 kts 59°
2026-05-05 05:50 18.79746 -99.67191 31598 ft 410 kts 65°
2026-05-05 05:51 18.80880 -99.64372 30266 ft 424 kts 68°
2026-05-05 05:51 18.82044 -99.61472 28820 ft 435 kts 66°
2026-05-05 05:51 18.83312 -99.58543 27409 ft 441 kts 65°
2026-05-05 05:51 18.84610 -99.55590 26066 ft 445 kts 66°
2026-05-05 05:52 18.85864 -99.52611 24779 ft 441 kts 66°
2026-05-05 05:52 18.87064 -99.49708 23556 ft 434 kts 66°
2026-05-05 05:52 18.88266 -99.46861 21940 ft 409 kts 66°
2026-05-05 05:52 18.89439 -99.44125 20873 ft 402 kts 66°
2026-05-05 05:53 18.89822 -99.43227 20866 ft 392 kts 66°
2026-05-05 05:53 18.90154 -99.42444 20865 ft 387 kts 66°
2026-05-05 05:53 18.91236 -99.39872 20579 ft 384 kts 66°
2026-05-05 05:53 18.92323 -99.37283 20076 ft 388 kts 66°
2026-05-05 05:54 18.93419 -99.34690 19563 ft 383 kts 66°
2026-05-05 05:54 18.94440 -99.32284 19099 ft 318 kts 66°
2026-05-05 05:54 18.95311 -99.30242 18678 ft 294 kts 65°
2026-05-05 05:54 18.96495 -99.28536 18133 ft 287 kts 50°
2026-05-05 05:55 18.97825 -99.26969 17657 ft 284 kts 50°
2026-05-05 05:55 18.99084 -99.25384 17199 ft 279 kts 52°
2026-05-05 05:55 19.00286 -99.23790 16756 ft 276 kts 52°
2026-05-05 05:55 19.01488 -99.22222 16317 ft 273 kts 52°
2026-05-05 05:56 19.02690 -99.20684 15883 ft 270 kts 51°
2026-05-05 05:56 19.03878 -99.19158 15459 ft 268 kts 51°
2026-05-05 05:56 19.05055 -99.17637 15050 ft 266 kts 51°
2026-05-05 05:56 19.06226 -99.16124 14640 ft 265 kts 51°
2026-05-05 05:57 19.07397 -99.14614 14224 ft 265 kts 51°
2026-05-05 05:57 19.08558 -99.13116 14053 ft 262 kts 51°
2026-05-05 05:57 19.09714 -99.11623 14078 ft 261 kts 51°
2026-05-05 05:57 19.10851 -99.10156 14098 ft 255 kts 51°
2026-05-05 05:58 19.11964 -99.08720 14106 ft 251 kts 51°
2026-05-05 05:58 19.13086 -99.07267 14123 ft 258 kts 51°
2026-05-05 05:58 19.14231 -99.05787 14135 ft 262 kts 51°
2026-05-05 05:58 19.15412 -99.04308 14137 ft 265 kts 47°
2026-05-05 05:59 19.16990 -99.03312 14098 ft 268 kts 18°
2026-05-05 05:59 19.18844 -99.03181 14141 ft 271 kts 352°
2026-05-05 05:59 19.20570 -99.03974 14169 ft 275 kts 325°
2026-05-05 05:59 19.21990 -99.05322 14240 ft 274 kts 317°
2026-05-05 06:00 19.23368 -99.06735 14169 ft 280 kts 317°
2026-05-05 06:00 19.24715 -99.08240 13653 ft 283 kts 310°
2026-05-05 06:00 19.25882 -99.09861 12951 ft 270 kts 308°
2026-05-05 06:00 19.26975 -99.11399 12115 ft 255 kts 307°
2026-05-05 06:01 19.27997 -99.12812 11364 ft 232 kts 307°
2026-05-05 06:01 19.28967 -99.14148 11277 ft 224 kts 307°
2026-05-05 06:01 19.29923 -99.15472 11157 ft 230 kts 307°
2026-05-05 06:01 19.30901 -99.16831 10951 ft 240 kts 307°
2026-05-05 06:02 19.31941 -99.18219 10680 ft 237 kts 311°
2026-05-05 06:02 19.33301 -99.19133 10360 ft 231 kts 339°
2026-05-05 06:02 19.34851 -99.19349 10100 ft 222 kts
2026-05-05 06:02 19.36296 -99.18897 9864 ft 216 kts 27°
2026-05-05 06:03 19.37443 -99.17889 9636 ft 216 kts 51°
2026-05-05 06:03 19.38235 -99.16588 9461 ft 200 kts 61°
2026-05-05 06:03 19.38880 -99.15408 9243 ft 169 kts 60°
2026-05-05 06:03 19.39446 -99.14370 8955 ft 156 kts 62°
2026-05-05 06:04 19.39991 -99.13391 8682 ft 150 kts 61°
2026-05-05 06:04 19.40521 -99.12469 8476 ft 144 kts 60°
2026-05-05 06:04 19.41041 -99.11568 8219 ft 141 kts 61°
2026-05-05 06:04 19.41533 -99.10674 7924 ft 141 kts 60°
2026-05-05 06:05 19.42031 -99.09794 7677 ft 139 kts 60°
2026-05-05 06:05 19.42515 -99.08913 7468 ft 137 kts 61°
2026-05-05 06:05 19.42993 -99.08064 7315 ft 130 kts 61°
2026-05-05 06:05 19.43400 -99.07338 7300 ft 93 kts 59°
2026-05-05 06:06 19.43637 -99.06918 7298 ft 45 kts 59°
2026-05-05 06:06 19.43767 -99.06692 7300 ft 30 kts 60°
2026-05-05 06:06 19.43703 -99.06620 7299 ft 13 kts 207°
2026-05-05 06:06 19.43628 -99.06659 7299 ft 11 kts 207°
2026-05-05 06:07 19.43562 -99.06696 7299 ft 10 kts 208°
2026-05-05 06:07 19.43481 -99.06741 7299 ft 15 kts 206°
2026-05-05 06:07 19.43392 -99.06788 7299 ft 14 kts 209°
2026-05-05 06:07 19.43313 -99.06850 7299 ft 16 kts 235°
2026-05-05 06:08 19.43261 -99.06944 7299 ft 14 kts 240°
2026-05-05 06:08 19.43214 -99.07028 7299 ft 13 kts 241°
2026-05-05 06:08 19.43192 -99.07112 7299 ft 11 kts 264°
2026-05-05 06:08 19.43161 -99.07183 7299 ft 12 kts 237°
2026-05-05 06:09 19.43110 -99.07205 7299 ft 7 kts 150°
2026-05-05 06:09 19.43071 -99.07180 7299 ft 6 kts 148°
2026-05-05 06:09 19.43042 -99.07178 7299 ft 7 kts 194°
2026-05-05 06:09 19.43021 -99.07175 7299 ft 1 kts 92°
2026-05-05 06:10 19.43023 -99.07175 7299 ft 0 kts 60°